WGTL01 YWLM-YPTN

Flight info

Callsign WGTL01
Flight time N/A
Altitude 36000
Route WLM DCT UBSON DCT NICLA DCT SORTI DCT SANAD DCT TW/N0406F200 W542 OVNOM W655 SULMI/N0463F400 DCT IVRAD Q57 MIGAX A464 TN Q23 DN/N0460F390 R225B R225C
Aircraft E737/M-SDE2E3FGHIRWXY/LB1

Departure

Time 2026-04-30 20:41
Airport Newcastle Airport (YWLM)

Arrival

Time N/A
Airport Tindal Airport (YPTN)
Time Latitude Longitude Altitude Speed Heading
2026-04-30 20:24 -32.79532 151.84155 34 ft 0 kts 234°
2026-04-30 20:36 -32.79572 151.84140 34 ft 6 kts 155°
2026-04-30 20:37 -32.79623 151.84177 34 ft 10 kts 148°
2026-04-30 20:37 -32.79689 151.84137 34 ft 13 kts 234°
2026-04-30 20:37 -32.79753 151.84044 34 ft 16 kts 198°
2026-04-30 20:37 -32.79844 151.84128 34 ft 17 kts 130°
2026-04-30 20:38 -32.79919 151.84232 34 ft 17 kts 131°
2026-04-30 20:38 -32.79999 151.84343 34 ft 18 kts 130°
2026-04-30 20:38 -32.80083 151.84460 34 ft 19 kts 130°
2026-04-30 20:39 -32.80279 151.84732 34 ft 22 kts 131°
2026-04-30 20:39 -32.80372 151.84825 34 ft 12 kts 174°
2026-04-30 20:39 -32.80392 151.84824 34 ft 1 kts 192°
2026-04-30 20:40 -32.80474 151.84752 34 ft 12 kts 248°
2026-04-30 20:40 -32.80457 151.84691 34 ft 0 kts 310°
2026-04-30 20:41 -32.79884 151.83896 34 ft 138 kts 310°
2026-04-30 20:41 -32.79187 151.82932 578 ft 154 kts 311°
2026-04-30 20:41 -32.78467 151.81950 1170 ft 173 kts 313°
2026-04-30 20:41 -32.77666 151.80846 1842 ft 185 kts 313°
2026-04-30 20:42 -32.76803 151.79640 2426 ft 200 kts 313°
2026-04-30 20:42 -32.75863 151.78326 3030 ft 216 kts 313°
2026-04-30 20:42 -32.73781 151.75438 4221 ft 247 kts 313°
2026-04-30 20:43 -32.72648 151.73868 5075 ft 254 kts 313°
2026-04-30 20:43 -32.71487 151.72257 5720 ft 269 kts 313°
2026-04-30 20:43 -32.70171 151.70619 6523 ft 275 kts 323°
2026-04-30 20:44 -32.66621 151.69423 7845 ft 276 kts 11°
2026-04-30 20:44 -32.64830 151.70131 7966 ft 272 kts 28°
2026-04-30 20:44 -32.61651 151.72539 7982 ft 270 kts 35°
2026-04-30 20:45 -32.58525 151.75053 7985 ft 270 kts 35°
2026-04-30 20:45 -32.56967 151.76291 7981 ft 269 kts 35°
2026-04-30 20:45 -32.55405 151.77522 7989 ft 271 kts 34°
2026-04-30 20:46 -32.50531 151.81270 10390 ft 287 kts 34°
2026-04-30 20:46 -32.48813 151.82588 10919 ft 303 kts 34°
2026-04-30 20:47 -32.45098 151.85440 11879 ft 335 kts 34°
2026-04-30 20:47 -32.43032 151.86928 11988 ft 354 kts 28°
2026-04-30 20:48 -32.38319 151.88939 13312 ft 367 kts 17°
2026-04-30 20:48 -32.35833 151.89748 14052 ft 372 kts 16°
2026-04-30 20:48 -32.33316 151.90556 14784 ft 376 kts 16°
2026-04-30 20:48 -32.30777 151.91397 15504 ft 381 kts 17°
2026-04-30 20:49 -32.28231 151.92265 16193 ft 385 kts 17°
2026-04-30 20:49 -32.25644 151.93169 16862 ft 390 kts 17°
2026-04-30 20:49 -32.23064 151.94080 17492 ft 394 kts 17°
2026-04-30 20:50 -32.17760 151.95960 18812 ft 402 kts 17°
2026-04-30 20:50 -32.15046 151.96922 19464 ft 406 kts 17°
2026-04-30 20:50 -32.12345 151.97867 20099 ft 409 kts 17°
2026-04-30 20:50 -32.09569 151.98659 20707 ft 413 kts 12°
2026-04-30 20:51 -32.06693 151.98993 21320 ft 418 kts
2026-04-30 20:51 -32.00915 151.97894 22421 ft 428 kts 343°
2026-04-30 20:51 -31.98128 151.96677 22929 ft 433 kts 339°
2026-04-30 20:52 -31.95330 151.95265 23471 ft 436 kts 337°
2026-04-30 20:52 -31.92574 151.93785 24005 ft 440 kts 336°
2026-04-30 20:52 -31.86983 151.90697 25058 ft 446 kts 335°
2026-04-30 20:53 -31.84228 151.88931 25552 ft 451 kts 328°
2026-04-30 20:53 -31.81732 151.86736 26035 ft 455 kts 320°
2026-04-30 20:53 -31.79419 151.84128 26514 ft 459 kts 314°
2026-04-30 20:54 -31.75183 151.78496 27429 ft 466 kts 310°
2026-04-30 20:54 -31.73114 151.75557 27920 ft 468 kts 309°
2026-04-30 20:54 -31.71067 151.72610 28344 ft 471 kts 309°
2026-04-30 20:55 -31.66868 151.66566 29225 ft 476 kts 309°
2026-04-30 20:55 -31.64752 151.63542 29663 ft 479 kts 309°
2026-04-30 20:55 -31.62631 151.60529 30158 ft 478 kts 309°
2026-04-30 20:56 -31.58440 151.54607 31352 ft 472 kts 309°
2026-04-30 20:56 -31.56345 151.51660 31857 ft 471 kts 308°
2026-04-30 20:56 -31.52163 151.45789 32832 ft 468 kts 308°
2026-04-30 20:57 -31.50075 151.42864 33313 ft 466 kts 308°
2026-04-30 20:57 -31.48004 151.39964 33763 ft 465 kts 308°
2026-04-30 20:57 -31.45939 151.37076 34186 ft 462 kts 308°
2026-04-30 20:58 -31.41829 151.31335 34986 ft 457 kts 308°
2026-04-30 20:58 -31.39797 151.28499 35338 ft 455 kts 308°
2026-04-30 20:58 -31.37771 151.25674 35747 ft 452 kts 308°
2026-04-30 20:58 -31.35773 151.22891 36135 ft 451 kts 307°
2026-04-30 20:59 -31.31751 151.17293 36985 ft 447 kts 307°
2026-04-30 20:59 -31.29771 151.14539 37315 ft 445 kts 307°
2026-04-30 21:00 -31.25783 151.08998 37953 ft 442 kts 307°
2026-04-30 21:00 -31.21853 151.03546 38385 ft 442 kts 307°
2026-04-30 21:01 -31.15927 150.95340 38386 ft 439 kts 307°
2026-04-30 21:02 -31.09994 150.87178 38395 ft 441 kts 308°
2026-04-30 21:02 -31.05424 150.82367 38391 ft 448 kts 323°
2026-04-30 21:03 -30.99876 150.79001 38403 ft 455 kts 331°
2026-04-30 21:03 -30.94093 150.76045 38404 ft 455 kts 332°
2026-04-30 21:04 -30.88265 150.73120 38401 ft 455 kts 332°
2026-04-30 21:04 -30.79571 150.68680 38402 ft 454 kts 332°
2026-04-30 21:05 -30.73847 150.65720 38398 ft 454 kts 332°
2026-04-30 21:05 -30.68077 150.62723 38390 ft 454 kts 332°
2026-04-30 21:06 -30.62302 150.59721 38390 ft 454 kts 332°
2026-04-30 21:06 -30.56542 150.56726 38389 ft 454 kts 331°
2026-04-30 21:07 -30.50790 150.53742 38391 ft 453 kts 331°
2026-04-30 21:07 -30.45061 150.50771 38383 ft 453 kts 331°
2026-04-30 21:08 -30.39277 150.47777 38373 ft 452 kts 331°
2026-04-30 21:08 -30.33561 150.44824 38377 ft 452 kts 331°
2026-04-30 21:09 -30.27935 150.41588 38368 ft 449 kts 326°
2026-04-30 21:09 -30.22534 150.37962 38375 ft 449 kts 325°
2026-04-30 21:10 -30.17191 150.34308 38372 ft 448 kts 326°
2026-04-30 21:10 -30.11777 150.30650 38373 ft 450 kts 326°
2026-04-30 21:11 -30.06388 150.27055 38373 ft 449 kts 326°
2026-04-30 21:11 -30.00941 150.23445 38380 ft 450 kts 326°
2026-04-30 21:12 -29.95502 150.19852 38374 ft 450 kts 326°
2026-04-30 21:12 -29.90000 150.16531 38377 ft 452 kts 333°
2026-04-30 21:13 -29.83925 150.14371 38372 ft 458 kts 342°
2026-04-30 21:13 -29.77688 150.12860 38371 ft 459 kts 344°
2026-04-30 21:14 -29.71422 150.11453 38366 ft 459 kts 345°
2026-04-30 21:14 -29.65190 150.09923 38363 ft 457 kts 339°
2026-04-30 21:15 -29.59251 150.07394 38365 ft 453 kts 332°
2026-04-30 21:15 -29.53517 150.04422 38355 ft 451 kts 330°
2026-04-30 21:16 -29.47843 150.01433 38359 ft 451 kts 331°
2026-04-30 21:16 -29.42112 149.98468 38351 ft 452 kts 331°
2026-04-30 21:17 -29.36350 149.95535 38353 ft 452 kts 332°
2026-04-30 21:17 -29.30613 149.92641 38353 ft 453 kts 332°
2026-04-30 21:18 -29.24846 149.89743 38344 ft 452 kts 331°
2026-04-30 21:18 -29.19088 149.86856 38344 ft 451 kts 331°
2026-04-30 21:19 -29.13321 149.83968 38340 ft 452 kts 331°
2026-04-30 21:19 -29.07583 149.81099 38337 ft 450 kts 331°
2026-04-30 21:20 -29.01837 149.78229 38333 ft 450 kts 331°
2026-04-30 21:20 -28.96086 149.75357 38323 ft 452 kts 331°
2026-04-30 21:21 -28.90311 149.72478 38319 ft 453 kts 331°
2026-04-30 21:22 -28.81677 149.68184 38320 ft 452 kts 331°
2026-04-30 21:23 -28.70153 149.62462 38320 ft 452 kts 331°
2026-04-30 21:23 -28.61481 149.58166 38319 ft 450 kts 331°
2026-04-30 21:24 -28.55784 149.55350 38319 ft 449 kts 331°
2026-04-30 21:24 -28.50039 149.52508 38314 ft 451 kts 331°
2026-04-30 21:25 -28.41413 149.48251 38308 ft 451 kts 331°
2026-04-30 21:26 -28.32769 149.43994 38303 ft 450 kts 331°
2026-04-30 21:27 -28.24688 149.38864 38305 ft 436 kts 312°
2026-04-30 21:27 -28.20963 149.33548 38305 ft 429 kts 297°
2026-04-30 21:28 -28.17420 149.24358 38303 ft 424 kts 285°
2026-04-30 21:29 -28.14707 149.14912 38301 ft 423 kts 285°
2026-04-30 21:30 -28.09986 148.99182 38293 ft 423 kts 286°
2026-04-30 21:31 -28.05164 148.83577 38313 ft 421 kts 286°
2026-04-30 21:32 -28.02256 148.74211 38318 ft 421 kts 286°
2026-04-30 21:32 -28.00313 148.67967 38318 ft 421 kts 286°
2026-04-30 21:33 -27.97394 148.58607 38316 ft 422 kts 286°
2026-04-30 21:34 -27.95448 148.52383 38312 ft 422 kts 287°
2026-04-30 21:34 -27.92510 148.43012 38309 ft 422 kts 287°
2026-04-30 21:35 -27.90556 148.36786 38309 ft 421 kts 286°
2026-04-30 21:35 -27.88601 148.30571 38309 ft 421 kts 287°
2026-04-30 21:36 -27.86643 148.24358 38309 ft 420 kts 287°
2026-04-30 21:37 -27.82726 148.11964 38304 ft 420 kts 287°
2026-04-30 21:37 -27.80772 148.05797 38303 ft 419 kts 287°
2026-04-30 21:38 -27.78805 147.99600 38296 ft 419 kts 287°
2026-04-30 21:38 -27.76832 147.93393 38295 ft 420 kts 287°
2026-04-30 21:39 -27.74858 147.87196 38296 ft 420 kts 287°
2026-04-30 21:39 -27.72887 147.81018 38286 ft 420 kts 287°
2026-04-30 21:40 -27.70906 147.74824 38292 ft 420 kts 287°
2026-04-30 21:40 -27.68930 147.68652 38292 ft 421 kts 287°
2026-04-30 21:41 -27.66940 147.62448 38292 ft 420 kts 287°
2026-04-30 21:41 -27.64965 147.56300 38291 ft 420 kts 287°
2026-04-30 21:42 -27.62978 147.50128 38286 ft 419 kts 287°
2026-04-30 21:42 -27.60991 147.43968 38285 ft 419 kts 287°
2026-04-30 21:43 -27.58998 147.37796 38284 ft 420 kts 287°
2026-04-30 21:43 -27.57000 147.31624 38285 ft 420 kts 287°
2026-04-30 21:44 -27.54999 147.25450 38281 ft 418 kts 287°
2026-04-30 21:44 -27.53000 147.19292 38280 ft 420 kts 287°
2026-04-30 21:45 -27.51000 147.13145 38275 ft 419 kts 287°
2026-04-30 21:45 -27.48995 147.06992 38279 ft 420 kts 287°
2026-04-30 21:46 -27.46991 147.00853 38274 ft 420 kts 287°
2026-04-30 21:46 -27.44967 146.94658 38272 ft 420 kts 287°
2026-04-30 21:47 -27.42959 146.88528 38273 ft 421 kts 287°
2026-04-30 21:47 -27.40941 146.82379 38273 ft 420 kts 287°
2026-04-30 21:48 -27.38924 146.76242 38271 ft 419 kts 287°
2026-04-30 21:48 -27.36900 146.70091 38271 ft 420 kts 287°
2026-04-30 21:49 -27.34866 146.63924 38269 ft 420 kts 287°
2026-04-30 21:49 -27.32844 146.57799 38270 ft 420 kts 287°
2026-04-30 21:50 -27.30813 146.51662 38268 ft 420 kts 287°
2026-04-30 21:50 -27.28787 146.45548 38268 ft 420 kts 287°
2026-04-30 21:51 -27.26742 146.39389 38268 ft 419 kts 287°
2026-04-30 21:51 -27.24705 146.33261 38267 ft 420 kts 288°
2026-04-30 21:52 -27.22665 146.27139 38268 ft 420 kts 288°
2026-04-30 21:52 -27.20625 146.21028 38266 ft 419 kts 288°
2026-04-30 21:53 -27.18582 146.14916 38269 ft 420 kts 288°
2026-04-30 21:53 -27.16526 146.08771 38266 ft 421 kts 288°
2026-04-30 21:54 -27.14474 146.02647 38266 ft 421 kts 288°
2026-04-30 21:54 -27.12415 145.96519 38267 ft 420 kts 288°
2026-04-30 21:55 -27.10351 145.90389 38265 ft 420 kts 288°
2026-04-30 21:55 -27.08301 145.84305 38267 ft 419 kts 288°
2026-04-30 21:56 -27.06234 145.78188 38261 ft 418 kts 288°
2026-04-30 21:56 -27.04182 145.72116 38253 ft 419 kts 287°
2026-04-30 21:57 -27.02126 145.66042 38250 ft 418 kts 287°
2026-04-30 21:57 -27.00060 145.59949 38252 ft 417 kts 287°
2026-04-30 21:58 -26.98004 145.53902 38247 ft 416 kts 288°
2026-04-30 21:58 -26.95947 145.47855 38248 ft 417 kts 287°
2026-04-30 21:59 -26.93876 145.41775 38253 ft 417 kts 287°
2026-04-30 22:00 -26.90776 145.32701 38252 ft 420 kts 288°
2026-04-30 22:00 -26.87650 145.23569 38252 ft 419 kts 288°
2026-04-30 22:01 -26.85569 145.17502 38250 ft 417 kts 288°
2026-04-30 22:01 -26.83413 145.11494 38251 ft 418 kts 291°
2026-04-30 22:02 -26.80296 145.05960 38248 ft 426 kts 305°
2026-04-30 22:02 -26.76261 145.01071 38238 ft 429 kts 309°
2026-04-30 22:03 -26.72058 144.96300 38235 ft 430 kts 309°
2026-04-30 22:03 -26.67901 144.91568 38234 ft 430 kts 309°
2026-04-30 22:04 -26.63726 144.86775 38234 ft 429 kts 309°
2026-04-30 22:05 -26.57527 144.79625 38236 ft 427 kts 309°
2026-04-30 22:05 -26.53402 144.74858 38231 ft 427 kts 309°
2026-04-30 22:06 -26.49273 144.70088 38235 ft 429 kts 309°
2026-04-30 22:06 -26.43065 144.62929 38234 ft 427 kts 309°
2026-04-30 22:07 -26.38933 144.58168 38233 ft 428 kts 309°
2026-04-30 22:07 -26.34786 144.53398 38232 ft 428 kts 309°
2026-04-30 22:08 -26.30661 144.48657 38232 ft 427 kts 309°
2026-04-30 22:08 -26.26539 144.43926 38230 ft 427 kts 309°
2026-04-30 22:09 -26.22410 144.39189 38228 ft 427 kts 309°
2026-04-30 22:09 -26.18265 144.34444 38230 ft 427 kts 309°
2026-04-30 22:10 -26.14125 144.29704 38228 ft 427 kts 309°
2026-04-30 22:10 -26.09983 144.24968 38224 ft 429 kts 309°
2026-04-30 22:11 -26.03764 144.17870 38228 ft 429 kts 309°
2026-04-30 22:12 -25.99594 144.13118 38223 ft 429 kts 309°
2026-04-30 22:12 -25.95436 144.08385 38218 ft 427 kts 309°
2026-04-30 22:13 -25.91302 144.03683 38220 ft 427 kts 309°
2026-04-30 22:13 -25.87147 143.98961 38220 ft 428 kts 309°
2026-04-30 22:14 -25.82998 143.94252 38218 ft 426 kts 309°
2026-04-30 22:14 -25.78855 143.89552 38217 ft 428 kts 309°
2026-04-30 22:15 -25.74707 143.84854 38213 ft 426 kts 309°
2026-04-30 22:15 -25.70551 143.80153 38214 ft 427 kts 309°
2026-04-30 22:16 -25.66416 143.75479 38211 ft 427 kts 309°
2026-04-30 22:17 -25.58108 143.66106 38217 ft 425 kts 309°
2026-04-30 22:17 -25.51926 143.59143 38211 ft 424 kts 309°
2026-04-30 22:18 -25.45688 143.52125 38209 ft 424 kts 309°
2026-04-30 22:19 -25.39498 143.45175 38206 ft 424 kts 309°
2026-04-30 22:20 -25.33288 143.38219 38200 ft 424 kts 308°
2026-04-30 22:20 -25.27081 143.31270 38198 ft 425 kts 309°
2026-04-30 22:21 -25.22934 143.26633 38194 ft 425 kts 309°
2026-04-30 22:21 -25.18785 143.21997 38195 ft 424 kts 309°
2026-04-30 22:22 -25.14627 143.17358 38195 ft 424 kts 309°
2026-04-30 22:22 -25.10510 143.12772 38190 ft 420 kts 309°
2026-04-30 22:23 -25.06398 143.08200 38190 ft 418 kts 309°
2026-04-30 22:23 -25.02288 143.03627 38187 ft 419 kts 309°
2026-04-30 22:24 -24.98188 142.99068 38187 ft 418 kts 309°
2026-04-30 22:24 -24.94088 142.94516 38188 ft 419 kts 309°
2026-04-30 22:25 -24.89981 142.89961 38189 ft 420 kts 309°
2026-04-30 22:25 -24.85859 142.85397 38183 ft 421 kts 309°
2026-04-30 22:26 -24.79657 142.78537 38186 ft 422 kts 309°
2026-04-30 22:27 -24.75565 142.74016 38182 ft 421 kts 309°
2026-04-30 22:27 -24.69356 142.67162 38178 ft 420 kts 309°
2026-04-30 22:28 -24.63165 142.60344 38174 ft 420 kts 309°
2026-04-30 22:29 -24.54896 142.51247 38174 ft 420 kts 309°
2026-04-30 22:31 -24.40430 142.35378 38173 ft 421 kts 308°
2026-04-30 22:32 -24.30032 142.24007 38172 ft 422 kts 309°
2026-04-30 22:33 -24.19649 142.12680 38169 ft 421 kts 309°
2026-04-30 22:35 -24.09260 142.01369 38172 ft 421 kts 309°
2026-04-30 22:36 -23.98886 141.90105 38162 ft 420 kts 309°
2026-04-30 22:37 -23.90591 141.81119 38161 ft 420 kts 309°
2026-04-30 22:38 -23.82236 141.72082 38153 ft 423 kts 309°
2026-04-30 22:39 -23.75990 141.65344 38153 ft 422 kts 309°
2026-04-30 22:40 -23.63482 141.51869 38139 ft 420 kts 309°
2026-04-30 22:41 -23.53091 141.40709 38139 ft 421 kts 309°
2026-04-30 22:43 -23.40569 141.27286 38133 ft 421 kts 309°
2026-04-30 22:44 -23.32209 141.18352 38131 ft 420 kts 309°
2026-04-30 22:45 -23.19655 141.04962 38130 ft 422 kts 309°
2026-04-30 22:47 -23.07044 140.91605 38127 ft 423 kts 311°
2026-04-30 22:48 -22.98259 140.83049 38125 ft 424 kts 312°
2026-04-30 22:49 -22.85077 140.70245 38121 ft 423 kts 311°
2026-04-30 22:51 -22.71961 140.57471 38120 ft 423 kts 312°
2026-04-30 22:52 -22.65391 140.51085 38124 ft 423 kts 312°
2026-04-30 22:53 -22.56639 140.42589 38428 ft 425 kts 312°
2026-04-30 22:53 -22.52268 140.38358 39493 ft 419 kts 312°
2026-04-30 22:53 -22.50120 140.36278 39799 ft 420 kts 312°
2026-04-30 22:54 -22.45751 140.32044 40130 ft 424 kts 313°
2026-04-30 22:55 -22.39210 140.25720 40132 ft 420 kts 313°
2026-04-30 22:56 -22.30478 140.17293 40129 ft 421 kts 313°
2026-04-30 22:57 -22.19592 140.06804 40126 ft 419 kts 313°
2026-04-30 22:58 -22.10917 139.98465 40122 ft 417 kts 313°
2026-04-30 22:59 -21.97904 139.85977 40123 ft 418 kts 313°